Weather History for KCID - November, 2012

Change the Weather History Date:

Tuesday, November 6, 2012

  Actual Average Record
Temperature  
Mean Temperature 40 °F 42 °F  
Max Temperature 45 °F 52 °F 76 °F (1916)
Min Temperature 34 °F 33 °F 10 °F (1959)
Degree Days  
Heating Degree Days 25 23  
Month to date heating degree days 156 129  
Since 1 July heating degree days 924 739  
Cooling Degree Days 0 0  
Month to date cooling degree days 0 0  
Year to date cooling degree days 1052 748  
Moisture  
Dew Point 37 °F    
Average Humidity 91    
Maximum Humidity 100    
Minimum Humidity 82    
Precipitation  
Precipitation 0.21 in 0.07 in 0.97 in (2000)
Month to date precipitation 0.24 0.44  
Year to date precipitation 21.34 31.52  
Sea Level Pressure  
Sea Level Pressure 29.93 in    
Wind  
Wind Speed 10 mph (WSW)    
Max Wind Speed 20 mph    
Max Gust Speed 25 mph    
Visibility 6 miles    
Events Rain    
T = Trace of Precipitation, MM = Missing Value Source: NWS Daily Summary

Daily Weather History Graph

Daily Weather History Graph

Search for Another Location

Airport or City:

Trip Planner

Search our weather history database for the weather conditions in past years. The results will help you decide how hot, cold, wet, or windy it might be!

Date:

Astronomy

Nov. 06, 2012 Rise Set
Actual Time 6:45 AM CST 4:54 PM CST
Civil Twilight 6:16 AM CST 5:23 PM CST
Nautical Twilight 5:43 AM CST 5:56 PM CST
Astronomical Twilight 5:10 AM CST 6:29 PM CST
Moon 11:35 PM CST (11/6) 12:37 PM CST (11/6)
Length of Visible Light 11h 07m
Length of Day
10h 08m
Waning Gibbous, 53% of the Moon is Illuminated
Nov 6
Waning Gibbous
Nov 6
Last Quarter
Nov 13
New
Nov 20
First Quarter
Nov 28
Full

Hourly Weather History & Observations

Time (CST) Temp. Windchill Dew Point Humidity Pressure Visibility Wind Dir Wind Speed Gust Speed Precip Events Conditions
12:52 AM 34.0 °F 29.8 °F 33.1 °F 96% 30.08 in 6.0 mi ESE 4.6 mph - N/A   Overcast
1:52 AM 36.0 °F 32.1 °F 34.0 °F 93% 30.05 in 6.0 mi SE 4.6 mph - N/A   Overcast
2:52 AM 36.0 °F - 34.0 °F 93% 30.05 in 7.0 mi Calm Calm - N/A   Overcast
3:52 AM 36.0 °F 32.1 °F 35.1 °F 97% 30.02 in 6.0 mi South 4.6 mph - N/A   Overcast
4:04 AM 35.6 °F 30.7 °F 35.6 °F 100% 29.99 in 6.0 mi SSE 5.8 mph - N/A   Overcast
4:52 AM 36.0 °F 29.6 °F 35.1 °F 97% 29.99 in 6.0 mi South 8.1 mph - N/A   Overcast
5:52 AM 37.0 °F 30.4 °F 35.1 °F 93% 29.98 in 6.0 mi South 9.2 mph - N/A   Overcast
6:06 AM 35.6 °F 28.6 °F 35.6 °F 100% 29.95 in 5.0 mi South 9.2 mph - 0.00 in Rain Light Rain
6:52 AM 36.0 °F 30.3 °F 36.0 °F 100% 29.95 in 3.0 mi South 6.9 mph - 0.04 in Rain Light Rain
7:52 AM 36.0 °F 29.0 °F 36.0 °F 100% 29.95 in 2.0 mi South 9.2 mph - 0.09 in Rain Light Rain
8:41 AM 35.6 °F 27.1 °F 35.6 °F 100% 29.92 in 3.0 mi SSW 12.7 mph - 0.05 in   Overcast
8:52 AM 37.0 °F 28.9 °F 37.0 °F 100% 29.93 in 3.0 mi SSW 12.7 mph - 0.05 in   Overcast
9:40 AM 37.4 °F 30.3 °F 37.4 °F 100% 29.90 in 1.8 mi SSW 10.4 mph - 0.00 in   Overcast
9:52 AM 37.0 °F 29.3 °F 37.0 °F 100% 29.92 in 1.8 mi SSW 11.5 mph - 0.00 in Rain Light Rain
10:34 AM 37.4 °F 29.3 °F 37.4 °F 100% 29.88 in 2.0 mi SSW 12.7 mph - 0.02 in Rain Light Rain
10:52 AM 37.9 °F 30.0 °F 37.9 °F 100% 29.90 in 2.0 mi SSW 12.7 mph - 0.03 in   Overcast
11:52 AM 37.9 °F 30.5 °F 37.9 °F 100% 29.88 in 2.0 mi SW 11.5 mph - N/A   Overcast
12:52 PM 41.0 °F 34.7 °F 41.0 °F 100% 29.85 in 2.0 mi WSW 10.4 mph - N/A   Overcast
12:59 PM 41.0 °F 34.7 °F 41.0 °F 100% 29.82 in 7.0 mi WSW 10.4 mph - N/A   Overcast
1:52 PM 43.0 °F 38.2 °F 41.0 °F 93% 29.84 in 9.0 mi NW 8.1 mph - N/A   Overcast
2:52 PM 44.1 °F 37.4 °F 39.9 °F 85% 29.86 in 10.0 mi NW 13.8 mph - N/A   Overcast
3:52 PM 43.0 °F 37.2 °F 37.9 °F 82% 29.87 in 10.0 mi NW 10.4 mph - N/A   Overcast
4:52 PM 42.1 °F 36.1 °F 37.9 °F 85% 29.89 in 10.0 mi NW 10.4 mph - N/A   Overcast
5:52 PM 41.0 °F 32.5 °F 37.9 °F 89% 29.91 in 10.0 mi NW 17.3 mph 25.3 mph 0.00 in Rain Light Rain
6:52 PM 39.9 °F 32.5 °F 37.9 °F 93% 29.92 in 10.0 mi NW 12.7 mph - 0.00 in   Overcast
7:52 PM 39.0 °F 31.4 °F 37.9 °F 96% 29.92 in 10.0 mi NW 12.7 mph - N/A   Overcast
8:52 PM 39.0 °F 33.4 °F 37.9 °F 96% 29.92 in 10.0 mi WNW 8.1 mph - N/A   Overcast
9:07 PM 39.2 °F 33.0 °F 37.4 °F 93% 29.90 in 10.0 mi West 9.2 mph - N/A   Overcast
9:52 PM 39.9 °F 32.9 °F 37.0 °F 89% 29.92 in 10.0 mi WNW 11.5 mph - N/A   Overcast
10:52 PM 39.0 °F 31.4 °F 37.0 °F 93% 29.91 in 10.0 mi WNW 12.7 mph - N/A   Overcast
11:13 PM 39.2 °F 32.0 °F 37.4 °F 93% 29.89 in 10.0 mi WNW 11.5 mph - N/A   Overcast
11:52 PM 39.0 °F 31.8 °F 37.9 °F 96% 29.91 in 10.0 mi NW 11.5 mph - 0.00 in   Overcast